Terminal Aerodrome Forecast
Issued by NWS

Home | Current Version | Previous Version | Text Only | Print | Product List | Glossary On
Versions: 1 2 3 4 5 6 7 8 9 10 11 12 13 14
498
FTUS42 KMLB 241120
TAFSUA
TAF
KSUA 241120Z 2412/2512 20006KT P6SM SCT120 OVC250
     FM241400 21015G23KT P6SM SCT030 BKN060
     FM241800 23018G26KT 5SM RA SCT020 OVC040
      TEMPO 2418/2421 VRB15G30KT 2SM TSRA BKN025CB
     FM242100 24016G23KT P6SM SCT030 OVC060
      TEMPO 2421/2424 3SM TSRA BKN020CB OVC030
     FM250000 23013G21KT P6SM SCT030 OVC050
      TEMPO 2500/2503 5SM RA BKN025 OVC050
     FM250300 22012G20KT P6SM SCT030 OVC050=

USA.gov is the U.S. government's official web portal to all federal, state and local government web resources and services.